Location: Banios
(43.0451°N, 0.2335°E)
Time: 12:38:11
(UTC+00:00)

A-11 Canister half - Pass Details

Date: 10 May 2021
Orbit: 1513 x 1686 km, 47.2° (Epoch: 14 June)

Event Time Altitude Azimuth Distance (km) Brightness Sun altitude
Rises 18:39:03 0° 279° (W) 4,655 13.7 4.4°
Reaches altitude 10° 18:42:06 10° 282° (WNW) 3,676 13.3 3.9°
Maximum altitude 18:51:21 70° 6° (N) 1,618 9.3 2.4°
Drops below altitude 10° 19:00:48 10° 90° (E) 3,760 10.5 0.8°
Sets 19:03:58 0° 92° (E) 4,766 11.0 0.2°
